Flag for Germany Weather past 2 weeks in Magdeburg, Saxony-Anhalt, Germany

Now
44 °F

Overcast.


Feels Like: 41 °F
Forecast: 45 / 52 °F
Wind: 6 mph from Southwest

Location: Magdeburg

Current Time: Dec 21, 2014 at 6:44:38 PM

Latest Report: Dec 21, 2014 at 6:00 PM


Visibility: 41 mi

Pressure: 30.17 "Hg

Humidity: 77%

Dew point: 37 °F

Location of MagdeburgLocation

Historic Weather in Magdeburg — Graph

°F

Magdeburg temperature yesterday

Maximum temperature yesterday: 46 °F (at 11:00 AM)
Minimum temperature yesterday: 36 °F (at 4:00 PM)
Average temperature yesterday: 42 °F

Past Weeks' High & Low Weather Summary

 TemperatureHumidityPressure
High56 °F (Dec 18, 11:00 PM)99% (Dec 7, 8:00 AM)30.38 "Hg (Dec 7, 8:00 AM)
Low28 °F (Dec 15, 3:00 AM)64% (Dec 20, 11:00 AM)29.38 "Hg (Dec 12, 5:00 PM)
Average40 °F83%29.92 "Hg
* Reported Dec 6 6:00 PM — Dec 21 6:00 PM, Magdeburg, Weather by CustomWeather, © 2014

Note: Actual official high and low records may vary slightly from our data, if they occured in-between our weather recording intervals... More about our weather records

Advertising

Magdeburg weather history for previous 24 hours

 ConditionsComfort  
Time TempWeatherWind HumidityBarometerVisibility
6:00 PM
Dec 21
44 °FOvercast.6 mph77%30.17 "Hg40 mi
5:00 PM44 °FOvercast.5 mph76%30.19 "Hg31 mi
3:00 PM45 °FOvercast.6 mph75%30.23 "Hg28 mi
2:00 PM45 °FOvercast.6 mph73%30.25 "Hg19 mi
1:00 PM45 °FOvercast.6 mph75%30.27 "Hg12 mi
12:00 PM43 °FOvercast.6 mph79%30.28 "Hg12 mi
11:00 AM43 °FPartly sunny.6 mph79%30.30 "Hg17 mi
9:00 AM40 °FPartly sunny.5 mph84%30.29 "Hg16 mi
8:00 AM41 °FPassing clouds.6 mph83%30.27 "Hg16 mi
7:00 AM41 °FOvercast.6 mph82%30.24 "Hg16 mi
6:00 AM42 °FPassing clouds.6 mph80%30.23 "Hg16 mi
5:00 AM42 °FPassing clouds.6 mph81%30.20 "Hg13 mi
3:00 AM42 °FLight rain. Overcast.7 mph78%30.14 "Hg11 mi
2:00 AM41 °FOvercast.8 mph80%30.11 "Hg16 mi
1:00 AM41 °FDrizzle. Overcast.7 mph81%30.09 "Hg16 mi
12:00 AM40 °FPassing clouds.7 mph80%30.08 "Hg18 mi
11:00 PM
Dec 20
39 °FPassing clouds.7 mph83%30.06 "Hg19 mi
9:00 PM38 °FPassing clouds.7 mph85%29.99 "Hg43 mi
8:00 PM38 °FLight rain. Overcast.8 mph87%29.95 "Hg43 mi
7:00 PM40 °FOvercast.8 mph84%29.91 "Hg40 mi
6:00 PM40 °FOvercast.7 mph82%29.88 "Hg34 mi
Weather by CustomWeather, © 2014

See weather overviewHow to use our weather pages